QPF
0.00 0.00 0.00 0.00 0.00 0.00 0.00 0.00 0.00 0.00 0.00 0.00 0.00 0.00 0.00 0.00 0.00 0.00 0.00 0.00 0.00 0.00 0.00 0.00 0.00 0.00 0.01 0.01 0.02 0.03 0.10 0.18 0.22 0.25 0.16 0.12 0.34 0.21 0.19 0.15 0.19 0.35
0.00 0.00 0.00 0.00 0.00 0.00 0.00 0.00 0.00 0.00 0.00 0.00 0.00 0.00 0.00 0.00 0.00 0.00 0.00 0.00 0.00 0.00 0.00 0.00 0.00 0.01 0.03 0.05 0.04 0.05 0.02 0.13 0.29 0.16 0.26 0.28 0.37 0.46 0.39 0.17 0.34 0.33
0.00 0.00 0.00 0.00 0.00 0.00 0.00 0.00 0.00 0.00 0.00 0.00 0.00 0.00 0.00 0.00 0.00 0.00 0.00 0.00 0.00 0.00 0.00 0.00 0.00 0.01 0.02 0.06 0.04 0.05 0.16 0.09 0.06 0.10 0.29 0.17 0.35 0.38 0.21 0.24 0.27 0.11
0.00 0.00 0.00 0.00 0.00 0.00 0.00 0.00 0.00 0.00 0.00 0.00 0.00 0.00 0.00 0.00 0.00 0.00 0.00 0.00 0.00 0.00 0.00 0.00 0.01 0.04 0.01 0.07 0.03 0.17 0.13 0.06 0.09 0.06 0.14 0.30 0.21 0.22 0.28 0.18 0.10 0.07
0.00 0.00 0.00 0.00 0.00 0.00 0.00 0.00 0.00 0.00 0.00 0.00 0.00 0.00 0.00 0.00 0.00 0.00 0.00 0.00 0.00 0.00 0.00 0.01 0.02 0.06 0.02 0.08 0.05 0.06 0.07 0.05 0.08 0.11 0.41 0.25 0.32 0.26 0.30 0.22 0.18 0.13
0.00 0.00 0.00 0.00 0.00 0.00 0.00 0.00 0.00 0.00 0.00 0.00 0.00 0.00 0.00 0.00 0.00 0.00 0.00 0.00 0.00 0.00 0.01 0.01 0.05 0.07 0.00 0.01 0.03 0.09 0.12 0.03 0.05 0.29 0.22 0.20 0.25 0.71 0.37 0.30 0.16 0.13
0.00 0.00 0.00 0.00 0.00 0.00 0.00 0.00 0.00 0.00 0.00 0.00 0.00 0.00 0.00 0.00 0.00 0.00 0.00 0.00 0.00 0.01 0.04 0.01 0.05 0.02 0.06 0.04 0.09 0.02 0.02 0.17 0.39 0.24 0.23 0.26 0.47 0.15 0.35 0.41 0.17 0.13
0.00 0.00 0.00 0.00 0.00 0.00 0.00 0.00 0.00 0.00 0.00 0.00 0.00 0.00 0.00 0.00 0.00 0.00 0.00 0.00 0.00 0.02 0.01 0.09 0.02 0.00 0.00 0.00 0.01 0.01 0.01 0.02 0.16 0.13 0.15 0.17 0.21 0.13 0.23 0.83 0.28 0.10
0.00 0.00 0.00 0.00 0.00 0.00 0.00 0.00 0.00 0.00 0.00 0.00 0.00 0.00 0.00 0.00 0.00 0.00 0.00 0.00 0.00 0.00 0.03 0.04 0.02 0.03 0.00 0.00 0.00 0.02 0.01 0.03 0.02 0.10 0.15 0.26 0.25 0.40 0.44 0.30 0.17 0.09
0.00 0.00 0.00 0.00 0.00 0.00 0.00 0.00 0.00 0.00 0.00 0.00 0.00 0.00 0.00 0.00 0.00 0.00 0.00 0.00 0.00 0.01 0.01 0.07 0.01 0.00 0.00 0.00 0.00 0.00 0.02 0.04 0.03 0.07 0.08 0.25 0.26 0.31 0.16 0.08 0.06 0.13
0.00 0.00 0.00 0.00 0.00 0.00 0.00 0.00 0.00 0.00 0.00 0.00 0.00 0.00 0.00 0.00 0.00 0.00 0.00 0.00 0.00 0.00 0.03 0.03 0.01 0.00 0.00 0.00 0.00 0.00 0.00 0.02 0.04 0.06 0.04 0.08 0.63 0.64 0.34 0.15 0.06 0.06
0.00 0.00 0.00 0.00 0.00 0.00 0.00 0.00 0.00 0.00 0.00 0.00 0.00 0.00 0.00 0.00 0.00 0.00 0.00 0.00 0.00 0.00 0.06 0.06 0.00 0.00 0.00 0.00 0.00 0.00 0.00 0.02 0.04 0.05 0.06 0.21 0.77 0.53 0.33 0.24 0.05 0.05
0.00 0.00 0.00 0.00 0.00 0.00 0.00 0.00 0.00 0.00 0.00 0.00 0.00 0.00 0.00 0.00 0.00 0.00 0.00 0.00 0.00 0.01 0.03 0.03 0.01 0.00 0.00 0.00 0.00 0.00 0.00 0.02 0.04 0.09 0.12 0.41 0.56 0.40 0.38 0.24 0.10 0.03
0.00 0.00 0.00 0.00 0.00 0.00 0.00 0.00 0.00 0.00 0.00 0.00 0.00 0.00 0.00 0.00 0.00 0.00 0.00 0.00 0.00 0.01 0.04 0.03 0.00 0.00 0.00 0.00 0.00 0.00 0.00 0.03 0.05 0.13 0.26 0.42 0.30 0.23 0.09 0.03 0.02 0.07
0.00 0.00 0.00 0.00 0.00 0.00 0.00 0.00 0.00 0.00 0.00 0.00 0.00 0.00 0.00 0.00 0.00 0.00 0.00 0.00 0.00 0.00 0.02 0.02 0.00 0.00 0.00 0.00 0.00 0.00 0.00 0.00 0.03 0.18 0.34 0.32 0.36 0.24 0.13 0.07 0.08 0.00
0.00 0.00 0.00 0.00 0.00 0.00 0.00 0.00 0.00 0.00 0.00 0.00 0.00 0.00 0.00 0.00 0.00 0.00 0.00 0.00 0.00 0.00 0.01 0.02 0.00 0.00 0.00 0.00 0.00 0.00 0.00 0.01 0.01 0.15 0.22 0.07 0.13 0.15 0.12 0.03 0.02 0.01
0.00 0.00 0.00 0.00 0.00 0.00 0.00 0.00 0.00 0.00 0.00 0.00 0.00 0.00 0.00 0.00 0.00 0.00 0.00 0.00 0.00 0.00 0.01 0.02 0.00 0.00 0.00 0.00 0.00 0.00 0.00 0.01 0.02 0.20 0.14 0.05 0.16 0.15 0.13 0.05 0.02 0.01
0.00 0.00 0.00 0.00 0.00 0.00 0.00 0.00 0.00 0.00 0.00 0.00 0.00 0.00 0.00 0.00 0.00 0.00 0.00 0.00 0.00 0.00 0.00 0.02 0.00 0.00 0.00 0.00 0.00 0.00 0.00 0.01 0.01 0.22 0.12 0.12 0.13 0.19 0.10 0.06 0.02 0.01
0.00 0.00 0.00 0.00 0.00 0.00 0.00 0.00 0.00 0.00 0.00 0.00 0.00 0.00 0.00 0.00 0.00 0.00 0.00 0.00 0.00 0.00 0.00 0.02 0.00 0.00 0.00 0.00 0.00 0.00 0.00 0.00 0.01 0.25 0.14 0.12 0.12 0.18 0.11 0.07 0.03 0.05
0.00 0.00 0.00 0.00 0.00 0.00 0.00 0.00 0.00 0.00 0.00 0.00 0.00 0.00 0.00 0.00 0.00 0.00 0.00 0.00 0.00 0.00 0.00 0.02 0.00 0.00 0.00 0.00 0.00 0.00 0.00 0.00 0.04 0.06 0.11 0.14 0.10 0.11 0.08 0.05 0.03 0.05
0.00 0.00 0.00 0.00 0.00 0.00 0.00 0.00 0.00 0.00 0.00 0.00 0.00 0.00 0.00 0.00 0.00 0.00 0.00 0.00 0.00 0.00 0.00 0.01 0.00 0.00 0.00 0.00 0.00 0.00 0.00 0.01 0.02 0.01 0.13 0.18 0.17 0.13 0.10 0.07 0.03 0.03
0.00 0.00 0.00 0.00 0.00 0.00 0.00 0.00 0.00 0.00 0.00 0.00 0.00 0.00 0.00 0.00 0.00 0.00 0.00 0.00 0.00 0.00 0.00 0.00 0.00 0.00 0.00 0.00 0.00 0.00 0.00 0.02 0.02 0.00 0.05 0.16 0.23 0.24 0.21 0.10 0.04 0.01
0.00 0.00 0.00 0.00 0.00 0.00 0.00 0.00 0.00 0.00 0.00 0.00 0.00 0.00 0.00 0.00 0.00 0.00 0.00 0.00 0.00 0.01 0.00 0.00 0.00 0.00 0.00 0.00 0.00 0.00 0.00 0.01 0.00 0.00 0.01 0.06 0.18 0.25 0.19 0.14 0.04 0.01
0.00 0.00 0.00 0.00 0.00 0.00 0.00 0.00 0.00 0.00 0.00 0.00 0.00 0.00 0.00 0.00 0.00 0.00 0.00 0.00 0.00 0.01 0.00 0.00 0.00 0.00 0.00 0.00 0.00 0.00 0.00 0.05 0.01 0.01 0.00 0.00 0.04 0.21 0.20 0.16 0.06 0.01
0.00 0.00 0.00 0.00 0.00 0.00 0.00 0.00 0.00 0.00 0.00 0.00 0.00 0.00 0.00 0.00 0.00 0.00 0.00 0.00 0.00 0.00 0.00 0.00 0.00 0.00 0.00 0.00 0.00 0.00 0.00 0.00 0.01 0.00 0.00 0.00 0.01 0.13 0.23 0.16 0.07 0.01
0.00 0.00 0.00 0.00 0.00 0.00 0.00 0.00 0.00 0.00 0.00 0.00 0.00 0.00 0.00 0.00 0.00 0.00 0.00 0.00 0.00 0.00 0.00 0.00 0.00 0.00 0.00 0.00 0.00 0.00 0.00 0.00 0.02 0.01 0.00 0.00 0.01 0.07 0.13 0.19 0.11 0.03
MSLP
1021.14 1020.90 1020.78 1020.62 1020.46 1020.22 1020.06 1019.78 1019.50 1019.34 1019.14 1018.94 1018.78 1018.50 1018.14 1017.74 1017.38 1017.14 1016.94 1016.62 1016.30 1016.18 1016.06 1015.94 1015.74 1015.54 1015.26 1014.98 1014.66 1014.34 1014.06 1013.70 1013.38 1013.22 1013.02 1012.70 1012.30 1011.90 1011.50 1011.22 1011.10 1011.10
1021.30 1021.10 1020.90 1020.74 1020.58 1020.34 1020.18 1019.90 1019.66 1019.50 1019.30 1019.10 1018.90 1018.58 1018.18 1017.86 1017.54 1017.22 1017.02 1016.74 1016.38 1016.26 1016.18 1016.14 1015.90 1015.74 1015.54 1015.22 1014.86 1014.50 1014.10 1013.70 1013.38 1013.06 1012.82 1012.46 1012.14 1011.86 1011.58 1011.30 1011.26 1011.26
1021.46 1021.26 1021.10 1020.98 1020.82 1020.58 1020.34 1020.06 1019.82 1019.66 1019.50 1019.26 1018.98 1018.66 1018.38 1018.02 1017.74 1017.38 1017.10 1016.86 1016.62 1016.38 1016.38 1016.34 1016.22 1016.10 1015.94 1015.58 1015.14 1014.74 1014.30 1013.82 1013.46 1013.06 1012.74 1012.38 1012.02 1011.86 1011.62 1011.46 1011.38 1011.34
1021.66 1021.46 1021.34 1021.14 1020.94 1020.74 1020.46 1020.26 1020.02 1019.82 1019.62 1019.42 1019.14 1018.78 1018.50 1018.14 1017.90 1017.54 1017.26 1017.02 1016.74 1016.50 1016.54 1016.54 1016.62 1016.62 1016.42 1016.02 1015.54 1015.06 1014.54 1014.06 1013.58 1013.18 1012.82 1012.38 1012.14 1011.94 1011.62 1011.50 1011.34 1011.06
1021.86 1021.66 1021.46 1021.30 1021.14 1020.86 1020.66 1020.50 1020.30 1020.06 1019.82 1019.58 1019.26 1018.86 1018.66 1018.34 1018.06 1017.74 1017.46 1017.22 1016.86 1016.70 1016.70 1016.94 1017.10 1017.10 1016.82 1016.42 1015.94 1015.50 1014.98 1014.50 1013.86 1013.34 1012.94 1012.54 1012.18 1012.02 1011.74 1011.46 1011.54 1011.18
1022.02 1021.78 1021.66 1021.50 1021.30 1021.10 1020.90 1020.74 1020.54 1020.30 1020.02 1019.74 1019.46 1019.06 1018.82 1018.54 1018.30 1017.98 1017.62 1017.38 1016.94 1016.90 1017.22 1017.50 1017.62 1017.50 1017.26 1016.94 1016.46 1016.02 1015.58 1014.98 1014.34 1013.74 1013.14 1012.66 1012.26 1011.90 1011.70 1011.66 1011.62 1011.26
1022.22 1021.98 1021.86 1021.62 1021.50 1021.34 1021.22 1021.02 1020.78 1020.50 1020.18 1019.94 1019.54 1019.34 1018.98 1018.74 1018.54 1018.18 1017.82 1017.54 1017.14 1017.58 1017.78 1018.06 1018.06 1017.98 1017.62 1017.22 1016.74 1016.22 1015.70 1015.30 1014.66 1014.06 1013.42 1012.82 1012.38 1011.94 1011.62 1011.58 1011.62 1011.42
1022.34 1022.14 1022.02 1021.86 1021.78 1021.66 1021.46 1021.26 1020.98 1020.70 1020.34 1020.06 1019.82 1019.58 1019.22 1019.06 1018.78 1018.46 1018.06 1017.74 1017.54 1018.18 1018.34 1018.46 1018.50 1018.30 1018.06 1017.78 1017.30 1016.74 1016.02 1015.42 1014.98 1014.42 1013.70 1013.14 1012.62 1012.06 1012.06 1012.10 1011.98 1011.66
1022.46 1022.34 1022.26 1022.06 1021.98 1021.86 1021.70 1021.42 1021.18 1020.86 1020.58 1020.34 1020.06 1019.82 1019.54 1019.34 1019.02 1018.70 1018.30 1018.02 1017.94 1018.58 1018.74 1018.90 1018.86 1018.70 1018.54 1018.26 1017.78 1017.14 1016.42 1015.86 1015.38 1014.86 1014.14 1013.58 1012.98 1012.30 1012.14 1012.14 1011.98 1011.86
1022.66 1022.54 1022.46 1022.26 1022.22 1022.06 1021.90 1021.66 1021.38 1021.10 1020.86 1020.58 1020.38 1020.10 1019.90 1019.62 1019.30 1018.94 1018.58 1018.30 1018.46 1019.02 1019.26 1019.26 1019.18 1019.06 1018.86 1018.54 1018.10 1017.58 1017.10 1016.42 1015.70 1015.14 1014.46 1013.98 1013.46 1012.94 1012.62 1012.30 1012.18 1012.06
1022.86 1022.78 1022.66 1022.50 1022.46 1022.26 1022.10 1021.90 1021.58 1021.46 1021.22 1020.94 1020.70 1020.50 1020.26 1019.94 1019.62 1019.30 1018.98 1018.66 1018.86 1019.46 1019.62 1019.58 1019.50 1019.34 1019.22 1018.78 1018.30 1017.90 1017.58 1016.90 1016.14 1015.46 1014.82 1014.30 1013.86 1013.46 1012.94 1012.66 1012.54 1012.38
1023.10 1023.02 1022.86 1022.78 1022.70 1022.50 1022.42 1022.18 1021.94 1021.82 1021.58 1021.30 1021.06 1020.90 1020.62 1020.30 1020.02 1019.70 1019.42 1019.06 1019.10 1019.74 1019.90 1019.98 1019.78 1019.66 1019.62 1019.30 1018.82 1018.30 1017.82 1017.18 1016.50 1015.78 1015.14 1014.62 1014.14 1013.74 1013.34 1013.14 1012.94 1012.74
1023.34 1023.26 1023.14 1023.10 1022.94 1022.78 1022.70 1022.42 1022.30 1022.10 1021.90 1021.66 1021.46 1021.22 1020.86 1020.58 1020.22 1019.90 1019.58 1019.34 1019.38 1019.94 1020.22 1020.30 1020.22 1020.10 1019.98 1019.66 1019.18 1018.66 1018.22 1017.50 1016.50 1015.90 1015.34 1014.82 1014.50 1014.30 1014.22 1013.78 1013.34 1013.18
1023.62 1023.50 1023.34 1023.30 1023.14 1023.02 1022.90 1022.70 1022.62 1022.50 1022.42 1022.10 1021.82 1021.50 1021.22 1020.90 1020.62 1020.14 1020.06 1019.74 1019.74 1020.06 1020.50 1020.58 1020.70 1020.66 1020.42 1020.02 1019.70 1019.30 1018.66 1017.90 1016.90 1016.10 1015.66 1015.22 1014.86 1014.46 1014.18 1013.90 1013.54 1013.38
1023.82 1023.70 1023.62 1023.54 1023.46 1023.34 1023.18 1023.14 1023.02 1023.02 1022.86 1022.50 1022.22 1021.82 1021.50 1021.18 1021.02 1020.58 1020.62 1020.42 1020.10 1020.18 1020.74 1020.98 1021.22 1021.34 1021.30 1021.22 1020.50 1019.58 1018.94 1018.14 1017.30 1016.46 1015.90 1015.54 1015.22 1014.86 1014.50 1014.26 1013.86 1013.62
1024.06 1024.02 1023.90 1023.82 1023.74 1023.62 1023.62 1023.58 1023.58 1023.54 1023.34 1023.02 1022.62 1022.14 1021.78 1021.42 1021.18 1021.02 1020.86 1020.74 1020.54 1020.66 1021.18 1021.30 1021.66 1021.74 1021.54 1021.18 1020.90 1020.34 1019.34 1018.34 1017.38 1016.62 1016.18 1015.86 1015.54 1015.34 1015.10 1014.74 1014.46 1014.22
1024.34 1024.30 1024.22 1024.14 1024.02 1023.98 1023.98 1024.02 1024.02 1023.94 1023.78 1023.42 1022.94 1022.58 1022.14 1021.78 1021.38 1021.22 1021.14 1021.10 1021.02 1021.10 1021.58 1021.70 1022.02 1022.22 1021.78 1021.38 1020.82 1020.26 1019.54 1018.74 1017.66 1016.86 1016.54 1016.18 1015.98 1015.74 1015.62 1015.26 1014.90 1014.58
1024.70 1024.66 1024.54 1024.46 1024.34 1024.42 1024.42 1024.38 1024.38 1024.22 1024.02 1023.62 1023.26 1022.94 1022.70 1022.38 1021.94 1021.62 1021.58 1021.46 1021.34 1021.42 1021.86 1022.06 1022.30 1022.50 1022.14 1021.66 1021.14 1020.50 1019.82 1019.10 1018.06 1017.46 1017.02 1016.70 1016.34 1016.06 1015.82 1015.62 1015.30 1014.90
1025.02 1024.94 1024.82 1024.70 1024.78 1024.82 1024.74 1024.74 1024.74 1024.58 1024.34 1024.06 1023.66 1023.34 1022.98 1022.58 1022.26 1021.98 1021.90 1021.82 1021.70 1021.66 1021.94 1022.34 1022.54 1022.70 1022.50 1022.02 1021.50 1020.90 1020.14 1019.22 1018.42 1017.82 1017.50 1017.14 1016.82 1016.54 1016.30 1016.02 1015.58 1015.26
1025.26 1025.18 1025.10 1025.06 1025.06 1024.98 1024.94 1024.90 1024.90 1024.82 1024.58 1024.34 1024.02 1023.74 1023.34 1022.90 1022.50 1022.38 1022.30 1022.14 1022.02 1022.02 1022.02 1022.42 1022.98 1023.02 1022.86 1022.50 1021.90 1021.26 1020.50 1019.66 1018.86 1018.22 1017.90 1017.58 1017.30 1017.06 1016.74 1016.34 1015.98 1015.74
1025.46 1025.46 1025.42 1025.30 1025.22 1025.22 1025.18 1025.10 1025.06 1025.02 1024.82 1024.62 1024.34 1023.98 1023.58 1023.30 1023.10 1022.90 1022.70 1022.46 1022.38 1022.46 1022.42 1022.50 1023.30 1023.38 1023.14 1022.94 1022.46 1021.78 1020.94 1019.86 1019.30 1018.70 1018.26 1017.94 1017.66 1017.46 1017.22 1016.78 1016.42 1016.30
1025.74 1025.70 1025.70 1025.54 1025.46 1025.38 1025.34 1025.26 1025.22 1025.26 1025.18 1024.90 1024.58 1024.22 1023.98 1023.82 1023.62 1023.30 1023.06 1022.86 1022.82 1022.94 1022.90 1022.90 1023.22 1023.58 1023.38 1023.34 1022.98 1022.38 1021.46 1020.46 1019.94 1019.34 1018.86 1018.46 1018.10 1017.70 1017.58 1017.26 1016.90 1016.74
1026.06 1026.02 1025.98 1025.70 1025.62 1025.62 1025.58 1025.54 1025.54 1025.50 1025.34 1025.10 1024.78 1024.54 1024.38 1024.26 1023.98 1023.74 1023.58 1023.46 1023.38 1023.38 1023.46 1023.54 1023.38 1023.74 1023.74 1023.70 1023.38 1022.90 1021.98 1021.26 1020.58 1019.98 1019.46 1018.98 1018.62 1018.18 1017.98 1017.82 1017.42 1017.10
1026.38 1026.30 1026.14 1025.86 1025.78 1025.82 1025.82 1025.86 1025.78 1025.66 1025.50 1025.30 1025.06 1024.82 1024.78 1024.70 1024.46 1024.30 1024.14 1024.06 1024.06 1023.98 1023.98 1023.98 1023.70 1023.74 1024.02 1024.02 1023.86 1023.42 1022.82 1022.14 1021.38 1020.74 1020.14 1019.54 1018.94 1018.46 1018.38 1018.34 1018.10 1017.46
1026.58 1026.50 1026.30 1026.10 1026.10 1025.98 1026.02 1026.10 1026.02 1026.02 1025.94 1025.66 1025.42 1025.30 1025.30 1025.10 1024.86 1024.78 1024.74 1024.66 1024.58 1024.46 1024.30 1024.22 1024.14 1023.94 1024.14 1024.30 1024.06 1023.74 1023.14 1022.50 1021.86 1021.34 1020.78 1020.14 1019.50 1018.94 1018.78 1018.70 1018.42 1018.06
1026.62 1026.58 1026.34 1026.30 1026.34 1026.22 1026.18 1026.30 1026.34 1026.34 1026.30 1026.14 1025.98 1025.74 1025.62 1025.46 1025.34 1025.26 1025.26 1025.22 1025.02 1024.78 1024.62 1024.50 1024.34 1024.30 1024.34 1024.54 1024.34 1023.90 1023.50 1022.94 1022.30 1021.86 1021.58 1020.98 1020.10 1019.34 1019.10 1018.94 1018.78 1018.46
Thickness
5621 5620 5618 5617 5616 5615 5613 5612 5610 5608 5605 5602 5599 5597 5595 5593 5589 5585 5579 5573 5567 5559 5550 5543 5537 5532 5529 5528 5528 5527 5526 5526 5526 5527 5528 5530 5533 5538 5544 5549 5555 5559
5619 5618 5616 5615 5613 5612 5610 5609 5607 5604 5601 5598 5595 5593 5591 5587 5584 5579 5573 5566 5559 5551 5542 5534 5529 5525 5522 5521 5521 5520 5521 5520 5521 5522 5524 5527 5530 5533 5537 5542 5546 5551
5617 5615 5614 5612 5611 5609 5607 5605 5603 5600 5597 5594 5591 5589 5586 5583 5578 5574 5567 5559 5551 5543 5534 5526 5521 5517 5514 5513 5513 5513 5513 5514 5515 5517 5519 5522 5526 5528 5532 5536 5540 5546
5614 5613 5611 5609 5608 5606 5604 5601 5599 5597 5594 5590 5587 5584 5582 5578 5573 5568 5561 5553 5544 5536 5527 5519 5513 5509 5506 5506 5506 5506 5506 5507 5509 5511 5514 5518 5521 5523 5528 5532 5536 5542
5612 5610 5608 5606 5604 5603 5600 5598 5595 5593 5590 5586 5584 5581 5577 5573 5567 5562 5554 5545 5538 5530 5520 5511 5505 5501 5499 5499 5498 5498 5498 5500 5503 5506 5509 5513 5517 5520 5524 5528 5532 5538
5609 5607 5606 5603 5601 5599 5597 5595 5591 5589 5586 5583 5580 5577 5573 5568 5562 5555 5548 5539 5532 5523 5512 5503 5498 5494 5493 5491 5490 5490 5491 5493 5496 5500 5505 5509 5513 5518 5522 5525 5528 5533
5607 5605 5603 5600 5599 5596 5594 5591 5588 5585 5582 5579 5576 5572 5568 5563 5556 5550 5542 5534 5526 5515 5504 5496 5491 5488 5486 5485 5484 5485 5486 5488 5491 5496 5501 5506 5511 5516 5521 5523 5527 5531
5604 5602 5600 5598 5596 5593 5590 5588 5585 5582 5579 5576 5572 5568 5564 5558 5551 5545 5536 5528 5520 5507 5496 5489 5485 5481 5478 5476 5477 5478 5481 5484 5487 5492 5497 5503 5508 5514 5518 5519 5523 5527
5602 5600 5598 5596 5593 5590 5587 5585 5582 5579 5576 5572 5568 5564 5559 5553 5546 5539 5531 5523 5513 5501 5490 5484 5479 5475 5471 5468 5470 5472 5476 5480 5484 5488 5493 5498 5504 5511 5514 5516 5520 5523
5599 5598 5595 5593 5590 5587 5584 5581 5579 5576 5572 5568 5564 5559 5554 5548 5542 5534 5526 5518 5507 5494 5485 5479 5473 5469 5465 5464 5466 5468 5471 5476 5480 5484 5490 5494 5500 5506 5510 5514 5518 5521
5597 5595 5593 5590 5586 5583 5581 5578 5575 5572 5567 5564 5559 5554 5549 5543 5537 5529 5520 5512 5501 5488 5478 5472 5467 5463 5461 5461 5463 5465 5467 5472 5476 5482 5486 5492 5497 5503 5507 5512 5515 5517
5594 5592 5589 5586 5583 5580 5577 5574 5571 5567 5563 5560 5555 5550 5544 5539 5532 5524 5516 5507 5497 5484 5474 5467 5463 5460 5458 5458 5460 5463 5465 5469 5474 5479 5484 5490 5495 5499 5504 5508 5510 5513
5591 5589 5586 5583 5580 5577 5573 5570 5567 5563 5559 5555 5550 5545 5541 5535 5529 5521 5513 5504 5493 5481 5471 5464 5460 5458 5456 5456 5458 5461 5463 5467 5473 5478 5483 5488 5492 5495 5498 5502 5506 5510
5588 5585 5583 5580 5576 5574 5570 5566 5563 5558 5554 5551 5546 5542 5537 5531 5526 5519 5510 5500 5490 5479 5469 5462 5458 5455 5454 5454 5456 5458 5461 5466 5472 5478 5483 5487 5491 5494 5497 5500 5505 5508
5585 5582 5580 5576 5573 5570 5566 5562 5558 5553 5549 5547 5542 5539 5534 5528 5522 5515 5505 5496 5488 5478 5468 5461 5456 5452 5450 5450 5451 5455 5459 5465 5472 5478 5483 5486 5489 5492 5495 5499 5502 5506
5581 5579 5576 5573 5570 5566 5562 5558 5553 5549 5545 5542 5539 5536 5532 5527 5521 5513 5504 5494 5486 5476 5466 5460 5455 5450 5449 5449 5449 5453 5458 5465 5473 5479 5482 5485 5488 5490 5493 5496 5499 5502
5578 5575 5573 5570 5566 5563 5558 5554 5549 5545 5541 5539 5536 5533 5529 5525 5519 5512 5504 5494 5484 5475 5465 5459 5454 5449 5448 5450 5451 5454 5458 5464 5472 5478 5482 5485 5488 5490 5491 5494 5497 5501
5574 5572 5569 5566 5563 5559 5555 5550 5545 5542 5539 5536 5534 5531 5526 5522 5517 5511 5503 5493 5484 5475 5465 5459 5453 5449 5448 5449 5451 5454 5458 5464 5471 5477 5480 5483 5487 5490 5491 5494 5496 5500
5571 5569 5566 5563 5559 5555 5552 5548 5543 5539 5536 5534 5531 5528 5524 5521 5516 5510 5502 5494 5485 5476 5467 5460 5454 5449 5448 5449 5451 5454 5458 5465 5471 5476 5480 5482 5485 5488 5490 5492 5496 5499
5568 5566 5563 5559 5556 5553 5549 5546 5541 5538 5534 5532 5529 5526 5523 5520 5515 5509 5502 5494 5486 5478 5469 5462 5454 5450 5448 5449 5451 5455 5459 5465 5471 5475 5480 5482 5483 5485 5487 5491 5495 5497
5566 5563 5559 5557 5554 5550 5547 5544 5540 5537 5533 5530 5528 5525 5522 5518 5513 5508 5502 5496 5487 5479 5471 5464 5456 5451 5449 5449 5451 5454 5459 5465 5470 5475 5479 5482 5483 5484 5487 5491 5493 5493
5563 5560 5557 5555 5551 5548 5545 5542 5539 5535 5531 5529 5527 5523 5520 5516 5511 5507 5502 5496 5489 5480 5472 5465 5458 5454 5451 5450 5451 5454 5459 5465 5469 5474 5479 5481 5484 5486 5488 5491 5491 5491
5559 5556 5554 5552 5550 5546 5543 5540 5537 5533 5531 5528 5525 5522 5519 5514 5510 5506 5502 5496 5489 5481 5473 5467 5461 5457 5454 5451 5452 5454 5459 5463 5468 5473 5478 5481 5484 5488 5489 5489 5490 5491
5556 5553 5552 5550 5547 5544 5541 5537 5535 5531 5529 5526 5524 5521 5517 5512 5509 5504 5500 5495 5488 5482 5475 5468 5463 5460 5456 5454 5454 5455 5458 5463 5467 5472 5476 5480 5484 5487 5488 5487 5489 5490
5554 5551 5549 5547 5544 5542 5539 5535 5531 5529 5525 5523 5521 5518 5514 5510 5506 5502 5498 5493 5488 5483 5477 5471 5466 5462 5458 5456 5456 5457 5459 5464 5467 5470 5474 5478 5482 5486 5487 5488 5488 5490
5552 5549 5547 5545 5542 5539 5536 5532 5528 5525 5521 5519 5517 5514 5511 5508 5504 5500 5496 5492 5488 5484 5479 5474 5469 5465 5460 5457 5457 5459 5461 5463 5466 5469 5470 5474 5480 5484 5486 5487 5488 5489